{"data":{"norad_id":48423,"epoch":"2026-05-25T04:11:28.995360Z","epoch_age_seconds":56364,"freshness":"FRESH","line1":"1 48423U 21039A   26145.17464115  .00001614  00000+0  12121-3 0  9994","line2":"2 48423  34.9957 171.8723 0004517 215.6491 144.3916 15.02524829276083","mean_motion":15.02524829,"eccentricity":0.0004517,"inclination_deg":34.9957,"raan_deg":171.8723,"arg_perigee_deg":215.6491,"mean_anomaly_deg":144.3916,"bstar":0.00012121,"rev_number":27608,"period_min":95.838682476774,"perigee_km":555.98036173913,"apogee_km":562.24747421843,"semimajor_km":6937.2509179788,"source":"CELESTRAK","updated_at":"2026-05-25T13:37:56.817753Z"}}